Portada
METAR-TAF:

METAR-TAF

Aeroports :

Narrabri, Austràlia

latitud: 30-19-09S, longitud: 149-49-38E, altitud: 240 m

Observació

L'informe es va fer fa 29 minuts, a les 08:00 UTC
Vent 5 kt del Sud/Sud-Est
Temperatura 31°C
Humitat 18%
Pressió 1011 hPa
Visibilitat 10 km o més
Núvols disperses a una alçada de 11500 ft

METAR: YNBR 170800Z AUTO 15005KT 9999 // SCT115 31/04 Q1011

Hora: 19:29 (08:29 UTC)


TAF: manca

Observacions i pronòstics meteorològics de més de 4000 aeroports (METAR i TAF).

Les estacions disponibles són els punts grocs i vermells al mapa.

Posi el ratolí al punt desitjat per veure el nom de l'estació.

Feu clic per veure les observacions i els pronòstics meteorològics.

Per canviar el mapa: feu clic els botons verds amb una creu de color negre per apropar; al botó verd amb un guió per allunyar la imatge; o en les fletxes verdes per a mapes adjacents.


METAR-TAF: